Location: Unspecified
(0.0000°N, 0.0000°E)
Time: 05:07:34
(UTC+00:00)

ARGOS - Visible Passes

Search period start: 16 July 2025 00:00
Search period end: 26 July 2025 00:00
Orbit: 819 x 832 km, 98.5° (Epoch: 15 July)

Date Brightness Start Highest point End Pass type
(mag) Time Alt. Az. Time Alt. Az. Time Alt. Az.
16 Jul 6.0 02:42:35 10° ENE 02:42:55 11° ENE 02:42:55 11° ENE visible
16 Jul 4.1 04:20:45 10° NNW 04:24:23 31° NW 04:24:23 31° NW visible
17 Jul 3.8 04:01:14 10° N 04:04:58 42° NNW 04:04:58 42° NNW visible
18 Jul 4.1 03:42:02 10° NNE 03:45:33 43° NNE 03:45:33 43° NNE visible
19 Jul 4.7 03:23:10 10° NNE 03:26:08 31° NE 03:26:08 31° NE visible
20 Jul 5.4 03:04:38 10° NE 03:06:42 20° ENE 03:06:42 20° ENE visible
20 Jul 4.7 04:45:39 10° NW 04:48:11 17° WNW 04:48:11 17° WNW visible
21 Jul 6.0 02:46:40 10° ENE 02:47:18 12° ENE 02:47:18 12° ENE visible
21 Jul 4.3 04:25:30 10° NNW 04:28:45 26° NW 04:28:45 26° NW visible
22 Jul 4.0 04:05:52 10° N 04:09:20 37° NNW 04:09:20 37° NNW visible
23 Jul 4.1 03:46:35 10° N 03:49:55 40° N 03:49:55 40° N visible
24 Jul 4.7 03:27:37 10° NNE 03:30:29 31° NE 03:30:29 31° NE visible
25 Jul 5.3 03:09:00 10° NE 03:11:04 21° NE 03:11:04 21° NE visible
25 Jul 4.9 04:50:40 10° NW 04:52:32 15° WNW 04:52:32 15° WNW visible
